• In Uzbekistan
  • List of Countries
  • For 7 days
  • Water Temperature
  • Satellite Maps
  • Weather Map
  • Weather Widgets
  • user-avatar
    Login

    Hourly Weather Hobart

    Today, 23 March, Thursday

    Time Temperature Precipitation Wind Pressure Humidity
    00:00 +10°C° 0 mm 2 mps 755 mmHg 94%
    01:00 +10°C° 0 mm 2 mps 755 mmHg 94%
    02:00 +10°C° 0.1 mm 2 mps 755 mmHg 95%
    03:00 +10°C° 0.1 mm 2 mps 755 mmHg 96%
    04:00 +10°C° 0 mm 2 mps 755 mmHg 96%
    05:00 +10°C° 0.1 mm 2 mps 755 mmHg 97%
    06:00 +10°C° 0.1 mm 2 mps 755 mmHg 97%
    07:00 +12°C° 0.1 mm 2 mps 756 mmHg 97%
    08:00 +13°C° 0.1 mm 2 mps 756 mmHg 91%
    09:00 +14°C° 0.1 mm 2 mps 756 mmHg 85%
    10:00 +16°C° 0 mm 2 mps 756 mmHg 78%
    11:00 +16°C° 0 mm 2 mps 755 mmHg 75%
    12:00 +17°C° 0 mm 2 mps 755 mmHg 71%
    13:00 +18°C° 0 mm 2 mps 755 mmHg 68%
    14:00 +18°C° 0 mm 2 mps 755 mmHg 68%
    15:00 +18°C° 0 mm 2 mps 755 mmHg 68%
    16:00 +18°C° 0 mm 2 mps 754 mmHg 67%
    17:00 +16°C° 0 mm 2 mps 754 mmHg 76%
    18:00 +14°C° 0 mm 2 mps 755 mmHg 85%
    19:00 +12°C° 0 mm 2 mps 755 mmHg 94%
    20:00 +12°C° 0 mm 2 mps 755 mmHg 94%
    21:00 +12°C° 0 mm 1 mps 755 mmHg 94%
    22:00 +11°C° 0 mm 1 mps 755 mmHg 94%
    23:00 +11°C° 0 mm 1 mps 755 mmHg 94%

    Tomorrow, 24 March, Friday

    Time Temperature Precipitation Wind Pressure Humidity
    00:00 +11°C° 0 mm 1 mps 755 mmHg 95%
    01:00 +10°C° 0 mm 1 mps 755 mmHg 96%
    02:00 +10°C° 0 mm 1 mps 755 mmHg 96%
    03:00 +10°C° 0 mm 1 mps 754 mmHg 96%
    04:00 +10°C° 0 mm 1 mps 754 mmHg 96%
    05:00 +10°C° 0 mm 1 mps 754 mmHg 95%
    06:00 +10°C° 0 mm 1 mps 755 mmHg 95%
    07:00 +11°C° 0 mm 1 mps 755 mmHg 94%
    08:00 +13°C° 0 mm 1 mps 755 mmHg 85%
    09:00 +15°C° 0 mm 1 mps 755 mmHg 75%
    10:00 +18°C° 0 mm 1 mps 755 mmHg 65%
    11:00 +18°C° 0 mm 2 mps 754 mmHg 59%
    12:00 +19°C° 0 mm 2 mps 754 mmHg 53%
    13:00 +20°C° 0 mm 2 mps 754 mmHg 46%
    14:00 +20°C° 0 mm 3 mps 753 mmHg 49%
    15:00 +19°C° 0 mm 3 mps 753 mmHg 51%
    16:00 +19°C° 0 mm 4 mps 752 mmHg 54%
    17:00 +17°C° 0 mm 4 mps 752 mmHg 63%
    18:00 +14°C° 0 mm 4 mps 752 mmHg 73%
    19:00 +12°C° 0 mm 4 mps 751 mmHg 82%
    20:00 +11°C° 0 mm 4 mps 751 mmHg 86%
    21:00 +11°C° 0 mm 4 mps 751 mmHg 90%
    22:00 +10°C° 0 mm 4 mps 751 mmHg 94%
    23:00 +10°C° 0 mm 4 mps 751 mmHg 92%

    Day after tomorrow, 25 March, Saturday

    Time Temperature Precipitation Wind Pressure Humidity
    00:00 +10°C° 0 mm 4 mps 750 mmHg 90%
    01:00 +11°C° 0 mm 4 mps 750 mmHg 89%
    02:00 +11°C° 0 mm 4 mps 749 mmHg 89%
    03:00 +11°C° 0 mm 4 mps 749 mmHg 89%
    04:00 +11°C° 0 mm 4 mps 748 mmHg 89%
    05:00 +11°C° 0 mm 4 mps 748 mmHg 87%
    06:00 +11°C° 0 mm 4 mps 748 mmHg 85%
    07:00 +11°C° 0 mm 4 mps 748 mmHg 84%
    08:00 +13°C° 0 mm 4 mps 748 mmHg 76%
    09:00 +15°C° 0 mm 4 mps 747 mmHg 68%
    10:00 +18°C° 0 mm 4 mps 747 mmHg 61%
    11:00 +19°C° 0.2 mm 4 mps 747 mmHg 63%
    12:00 +20°C° 0.2 mm 3 mps 746 mmHg 65%
    13:00 +20°C° 0.2 mm 2 mps 746 mmHg 67%
    14:00 +20°C° 0.4 mm 2 mps 745 mmHg 70%
    15:00 +20°C° 0.4 mm 2 mps 745 mmHg 74%
    16:00 +19°C° 0.4 mm 2 mps 745 mmHg 77%
    17:00 +18°C° 0 mm 2 mps 745 mmHg 82%
    18:00 +17°C° 0 mm 2 mps 745 mmHg 86%
    19:00 +16°C° 0 mm 2 mps 745 mmHg 91%
    20:00 +16°C° 0 mm 2 mps 745 mmHg 92%
    21:00 +16°C° 0 mm 2 mps 745 mmHg 93%
    22:00 +16°C° 0 mm 2 mps 746 mmHg 94%
    23:00 +16°C° 0 mm 2 mps 746 mmHg 95%

    26 March, Sunday

    Time Temperature Precipitation Wind Pressure Humidity
    00:00 +15°C° 0 mm 2 mps 746 mmHg 95%
    01:00 +15°C° 0 mm 2 mps 746 mmHg 96%
    02:00 +15°C° 0 mm 2 mps 746 mmHg 96%
    03:00 +14°C° 0 mm 2 mps 746 mmHg 97%
    04:00 +14°C° 0 mm 2 mps 746 mmHg 97%
    05:00 +14°C° 0 mm 2 mps 746 mmHg 97%
    06:00 +14°C° 0 mm 2 mps 747 mmHg 97%
    07:00 +14°C° 0 mm 2 mps 747 mmHg 97%
    08:00 +16°C° 0 mm 1 mps 748 mmHg 87%
    09:00 +20°C° 0 mm 1 mps 748 mmHg 77%
    10:00 +22°C° 0 mm 1 mps 748 mmHg 67%
    11:00 +24°C° 0 mm 1 mps 748 mmHg 60%
    12:00 +26°C° 0 mm 1 mps 748 mmHg 52%
    13:00 +27°C° 0 mm 2 mps 748 mmHg 45%
    14:00 +27°C° 0 mm 2 mps 747 mmHg 48%
    15:00 +26°C° 0 mm 3 mps 747 mmHg 51%
    16:00 +25°C° 0 mm 3 mps 747 mmHg 54%
    17:00 +22°C° 0 mm 3 mps 747 mmHg 67%
    18:00 +19°C° 0 mm 3 mps 747 mmHg 80%
    19:00 +17°C° 0 mm 3 mps 747 mmHg 92%
    20:00 +17°C° 0 mm 3 mps 747 mmHg 94%
    21:00 +16°C° 0 mm 3 mps 747 mmHg 96%
    22:00 +16°C° 0 mm 3 mps 747 mmHg 97%
    23:00 +15°C° 0 mm 4 mps 746 mmHg 97%

    27 March, Monday

    Time Temperature Precipitation Wind Pressure Humidity
    00:00 +14°C° 0 mm 4 mps 745 mmHg 97%
    01:00 +14°C° 0 mm 4 mps 744 mmHg 97%
    02:00 +14°C° 0 mm 5 mps 743 mmHg 93%
    03:00 +14°C° 0 mm 5 mps 742 mmHg 90%
    04:00 +15°C° 0 mm 5 mps 742 mmHg 86%
    05:00 +16°C° 0 mm 5 mps 741 mmHg 82%
    06:00 +17°C° 0 mm 6 mps 740 mmHg 79%
    07:00 +20°C° 0 mm 6 mps 739 mmHg 75%
    08:00 +22°C° 0.1 mm 7 mps 738 mmHg 66%
    09:00 +26°C° 0.1 mm 8 mps 738 mmHg 57%
    10:00 +29°C° 0.1 mm 9 mps 737 mmHg 48%
    11:00 +29°C° 0 mm 10 mps 736 mmHg 48%
    12:00 +31°C° 0 mm 11 mps 735 mmHg 47%
    13:00 +31°C° 0 mm 12 mps 734 mmHg 47%
    14:00 +24°C° 1.5 mm 11 mps 735 mmHg 60%
    15:00 +18°C° 1.5 mm 11 mps 735 mmHg 73%
    16:00 +13°C° 1.5 mm 10 mps 735 mmHg 86%
    17:00 +13°C° 0.1 mm 10 mps 735 mmHg 85%
    18:00 +12°C° 0.1 mm 10 mps 735 mmHg 84%
    19:00 +12°C° 0.1 mm 10 mps 736 mmHg 82%
    20:00 +12°C° 0 mm 10 mps 736 mmHg 78%
    21:00 +12°C° 0 mm 10 mps 737 mmHg 74%
    22:00 +12°C° 0 mm 11 mps 737 mmHg 69%
    23:00 +13°C° 0 mm 10 mps 738 mmHg 70%

    28 March, Tuesday

    Time Temperature Precipitation Wind Pressure Humidity
    00:00 +13°C° 0 mm 9 mps 738 mmHg 70%
    01:00 +13°C° 0 mm 9 mps 739 mmHg 70%
    02:00 +13°C° 0 mm 8 mps 739 mmHg 71%
    03:00 +12°C° 0 mm 7 mps 739 mmHg 72%
    04:00 +12°C° 0 mm 7 mps 740 mmHg 73%
    05:00 +13°C° 0 mm 6 mps 740 mmHg 74%
    06:00 +13°C° 0 mm 6 mps 741 mmHg 75%
    07:00 +13°C° 0 mm 6 mps 742 mmHg 76%
    08:00 +14°C° 0 mm 7 mps 742 mmHg 73%
    09:00 +14°C° 0 mm 7 mps 742 mmHg 70%
    10:00 +15°C° 0 mm 8 mps 743 mmHg 68%
    11:00 +15°C° 0 mm 8 mps 743 mmHg 66%
    12:00 +16°C° 0 mm 7 mps 743 mmHg 65%
    13:00 +16°C° 0 mm 7 mps 743 mmHg 64%
    14:00 +16°C° 0 mm 7 mps 743 mmHg 65%
    15:00 +16°C° 0 mm 6 mps 743 mmHg 66%
    16:00 +16°C° 0 mm 6 mps 743 mmHg 67%
    17:00 +15°C° 0 mm 6 mps 744 mmHg 71%
    18:00 +15°C° 0 mm 5 mps 744 mmHg 74%
    19:00 +14°C° 0 mm 5 mps 745 mmHg 77%
    20:00 +14°C° 0 mm 5 mps 745 mmHg 78%
    21:00 +14°C° 0 mm 5 mps 745 mmHg 79%
    22:00 +13°C° 0 mm 5 mps 746 mmHg 80%
    23:00 +13°C° 0 mm 5 mps 746 mmHg 81%
    Show more